Time,TemperatureF,DewpointF,PressureIn,WindDirection,WindDirectionDegrees,WindSpeedMPH,WindSpeedGustMPH,Humidity,HourlyPrecipIn,Conditions,Clouds,dailyrainin,SoftwareType,DateUTC
2013-05-23 00:15:00,35.1,34.1,29.84,NE,45,1.7,-999.0,96,-99.99,,,0.00,Acu-Link.com,2013-05-23 06:15:00,
2013-05-23 00:30:00,34.5,33.7,29.83,NE,45,1.1,-999.0,97,-99.99,,,0.00,Acu-Link.com,2013-05-23 06:30:00,
2013-05-23 00:46:00,34.2,33.7,29.83,NE,45,1.7,-999.0,98,-99.99,,,0.00,Acu-Link.com,2013-05-23 06:46:00,
2013-05-23 01:01:00,34.2,33.9,29.82,NE,45,1.7,-999.0,99,-99.99,,,0.00,Acu-Link.com,2013-05-23 07:01:00,
2013-05-23 01:17:00,34.2,33.9,29.82,NE,45,0.0,-999.0,99,-99.99,,,0.00,Acu-Link.com,2013-05-23 07:17:00,
2013-05-23 01:32:00,34.2,33.9,29.82,NE,45,1.1,-999.0,99,-99.99,,,0.00,Acu-Link.com,2013-05-23 07:32:00,
2013-05-23 01:47:00,34.0,33.7,29.82,NE,45,0.0,-999.0,99,-99.99,,,0.00,Acu-Link.com,2013-05-23 07:47:00,
2013-05-23 02:02:00,33.6,33.3,29.81,NE,45,1.7,-999.0,99,-99.99,,,0.00,Acu-Link.com,2013-05-23 08:02:00,
2013-05-23 02:17:00,33.6,33.3,29.81,NE,45,0.0,-999.0,99,-99.99,,,0.00,Acu-Link.com,2013-05-23 08:17:00,
2013-05-23 02:32:00,34.0,33.7,29.81,NE,45,2.2,-999.0,99,-99.99,,,0.00,Acu-Link.com,2013-05-23 08:32:00,
2013-05-23 02:48:00,33.6,33.3,29.81,NE,45,1.7,-999.0,99,-99.99,,,0.00,Acu-Link.com,2013-05-23 08:48:00,
2013-05-23 03:03:00,33.3,33.0,29.81,NE,45,2.7,-999.0,99,-99.99,,,0.00,Acu-Link.com,2013-05-23 09:03:00,
2013-05-23 03:18:00,32.9,32.7,29.81,NE,45,2.2,-999.0,99,-99.99,,,0.00,Acu-Link.com,2013-05-23 09:18:00,
2013-05-23 03:33:00,32.9,32.7,29.81,NE,45,2.7,-999.0,99,-99.99,,,0.00,Acu-Link.com,2013-05-23 09:33:00,
2013-05-23 03:49:00,32.4,32.2,29.81,NE,45,0.0,-999.0,99,-99.99,,,0.00,Acu-Link.com,2013-05-23 09:49:00,
2013-05-23 04:04:00,32.5,32.3,29.81,NE,45,0.0,-999.0,99,-99.99,,,0.00,Acu-Link.com,2013-05-23 10:04:00,
2013-05-23 04:19:00,32.7,32.5,29.81,NE,45,3.7,-999.0,99,-99.99,,,0.00,Acu-Link.com,2013-05-23 10:19:00,
2013-05-23 04:34:00,32.7,32.5,29.81,NE,45,1.7,-999.0,99,-99.99,,,0.00,Acu-Link.com,2013-05-23 10:34:00,
2013-05-23 04:49:00,32.5,32.3,29.80,NE,45,0.0,-999.0,99,-99.99,,,0.00,Acu-Link.com,2013-05-23 10:49:00,
2013-05-23 05:04:00,32.5,32.3,29.80,NE,45,0.0,-999.0,99,-99.99,,,0.00,Acu-Link.com,2013-05-23 11:04:00,
2013-05-23 05:19:00,33.4,32.4,29.81,NE,45,2.2,-999.0,96,-99.99,,,0.00,Acu-Link.com,2013-05-23 11:19:00,
2013-05-23 05:34:00,34.2,31.9,29.81,NE,45,0.0,-999.0,91,-99.99,,,0.00,Acu-Link.com,2013-05-23 11:34:00,
2013-05-23 05:49:00,33.4,31.9,29.81,NE,45,0.0,-999.0,94,-99.99,,,0.00,Acu-Link.com,2013-05-23 11:49:00,
2013-05-23 06:05:00,33.4,31.6,29.81,NE,45,0.0,-999.0,93,-99.99,,,0.00,Acu-Link.com,2013-05-23 12:05:00,
2013-05-23 06:20:00,36.3,31.9,29.81,NE,45,1.7,-999.0,84,-99.99,,,0.00,Acu-Link.com,2013-05-23 12:20:00,
2013-05-23 06:35:00,36.0,31.9,29.81,NE,45,1.7,-999.0,85,-99.99,,,0.00,Acu-Link.com,2013-05-23 12:35:00,
2013-05-23 06:50:00,37.8,32.2,29.82,NE,45,2.2,-999.0,80,-99.99,,,0.00,Acu-Link.com,2013-05-23 12:50:00,
2013-05-23 07:05:00,39.6,32.0,29.82,NE,45,2.7,-999.0,74,-99.99,,,0.00,Acu-Link.com,2013-05-23 13:05:00,
2013-05-23 07:20:00,39.6,32.0,29.82,NE,45,3.2,-999.0,74,-99.99,,,0.00,Acu-Link.com,2013-05-23 13:20:00,
2013-05-23 07:35:00,40.5,32.2,29.82,NE,45,1.1,-999.0,72,-99.99,,,0.00,Acu-Link.com,2013-05-23 13:35:00,
2013-05-23 07:50:00,41.5,32.8,29.82,NE,45,2.2,-999.0,71,-99.99,,,0.00,Acu-Link.com,2013-05-23 13:50:00,
2013-05-23 08:05:00,43.5,32.1,29.83,NE,45,3.2,-999.0,64,-99.99,,,0.00,Acu-Link.com,2013-05-23 14:05:00,
2013-05-23 08:21:00,45.9,32.8,29.83,ESE,112,3.7,-999.0,60,-99.99,,,0.00,Acu-Link.com,2013-05-23 14:21:00,
2013-05-23 08:36:00,49.1,32.7,29.84,SSW,202,4.7,-999.0,53,-99.99,,,0.00,Acu-Link.com,2013-05-23 14:36:00,
2013-05-23 08:51:00,51.6,32.6,29.84,SE,135,4.7,-999.0,48,-99.99,,,0.00,Acu-Link.com,2013-05-23 14:51:00,
2013-05-23 09:06:00,52.2,32.6,29.84,South,180,2.2,-999.0,47,-99.99,,,0.00,Acu-Link.com,2013-05-23 15:06:00,
2013-05-23 09:21:00,55.0,32.9,29.84,ESE,112,4.2,-999.0,43,-99.99,,,0.00,Acu-Link.com,2013-05-23 15:21:00,
2013-05-23 09:36:00,54.7,30.2,29.84,East,90,8.3,-999.0,39,-99.99,,,0.00,Acu-Link.com,2013-05-23 15:36:00,
2013-05-23 09:52:00,56.5,32.5,29.84,ESE,112,4.2,-999.0,40,-99.99,,,0.00,Acu-Link.com,2013-05-23 15:52:00,
2013-05-23 10:07:00,57.2,29.8,29.84,ESE,112,6.3,-999.0,35,-99.99,,,0.00,Acu-Link.com,2013-05-23 16:07:00,
2013-05-23 10:22:00,57.0,30.3,29.84,ESE,112,3.7,-999.0,36,-99.99,,,0.00,Acu-Link.com,2013-05-23 16:22:00,
2013-05-23 10:37:00,59.4,32.4,29.83,ESE,112,2.2,-999.0,36,-99.99,,,0.00,Acu-Link.com,2013-05-23 16:37:00,
2013-05-23 10:52:00,58.1,30.6,29.83,ESE,112,2.7,-999.0,35,-99.99,,,0.00,Acu-Link.com,2013-05-23 16:52:00,
2013-05-23 11:07:00,57.4,26.2,29.83,ESE,112,4.7,-999.0,30,-99.99,,,0.00,Acu-Link.com,2013-05-23 17:07:00,
2013-05-23 11:22:00,59.2,29.4,29.82,ESE,112,2.2,-999.0,32,-99.99,,,0.00,Acu-Link.com,2013-05-23 17:22:00,
2013-05-23 11:37:00,60.8,29.2,29.82,South,180,9.4,-999.0,30,-99.99,,,0.00,Acu-Link.com,2013-05-23 17:37:00,
2013-05-23 11:52:00,60.6,29.0,29.81,South,180,4.7,-999.0,30,-99.99,,,0.00,Acu-Link.com,2013-05-23 17:52:00,
2013-05-23 12:08:00,60.8,29.2,29.82,South,180,8.3,-999.0,30,-99.99,,,0.00,Acu-Link.com,2013-05-23 18:08:00,
2013-05-23 12:23:00,62.1,27.7,29.82,ESE,112,5.3,-999.0,27,-99.99,,,0.00,Acu-Link.com,2013-05-23 18:23:00,
2013-05-23 12:38:00,62.8,29.2,29.81,SSW,202,3.7,-999.0,28,-99.99,,,0.00,Acu-Link.com,2013-05-23 18:38:00,
2013-05-23 12:53:00,61.7,28.3,29.81,ESE,112,7.3,-999.0,28,-99.99,,,0.00,Acu-Link.com,2013-05-23 18:53:00,
2013-05-23 13:08:00,60.6,29.8,29.81,ESE,112,2.2,-999.0,31,-99.99,,,0.00,Acu-Link.com,2013-05-23 19:08:00,
2013-05-23 13:23:00,62.6,30.7,29.80,ESE,112,6.3,-999.0,30,-99.99,,,0.00,Acu-Link.com,2013-05-23 19:23:00,
2013-05-23 13:38:00,63.1,29.5,29.79,South,180,7.3,-999.0,28,-99.99,,,0.00,Acu-Link.com,2013-05-23 19:38:00,
2013-05-23 13:53:00,63.0,24.6,29.79,SSW,202,10.4,-999.0,23,-99.99,,,0.00,Acu-Link.com,2013-05-23 19:53:00,
2013-05-23 14:08:00,63.7,26.2,29.79,South,180,5.3,-999.0,24,-99.99,,,0.00,Acu-Link.com,2013-05-23 20:08:00,
2013-05-23 14:24:00,62.4,23.1,29.79,WSW,247,6.3,-999.0,22,-99.99,,,0.00,Acu-Link.com,2013-05-23 20:24:00,
2013-05-23 14:39:00,62.6,23.2,29.78,SSE,157,2.7,-999.0,22,-99.99,,,0.00,Acu-Link.com,2013-05-23 20:39:00,
2013-05-23 14:55:00,62.8,24.5,29.78,South,180,5.8,-999.0,23,-99.99,,,0.00,Acu-Link.com,2013-05-23 20:55:00,
2013-05-23 15:10:00,64.6,26.0,29.77,South,180,3.2,-999.0,23,-99.99,,,0.00,Acu-Link.com,2013-05-23 21:10:00,
2013-05-23 15:25:00,64.2,24.6,29.76,ENE,67,5.8,-999.0,22,-99.99,,,0.00,Acu-Link.com,2013-05-23 21:25:00,
2013-05-23 15:40:00,65.8,25.9,29.76,SSW,202,3.2,-999.0,22,-99.99,,,0.00,Acu-Link.com,2013-05-23 21:40:00,
2013-05-23 15:55:00,64.6,23.8,29.76,South,180,4.2,-999.0,21,-99.99,,,0.00,Acu-Link.com,2013-05-23 21:55:00,
2013-05-23 16:11:00,60.1,22.2,29.76,South,180,4.7,-999.0,23,-99.99,,,0.00,Acu-Link.com,2013-05-23 22:11:00,
2013-05-23 16:26:00,60.8,22.8,29.75,SSW,202,5.3,-999.0,23,-99.99,,,0.00,Acu-Link.com,2013-05-23 22:26:00,
2013-05-23 16:41:00,61.3,24.2,29.75,ESE,112,3.2,-999.0,24,-99.99,,,0.00,Acu-Link.com,2013-05-23 22:41:00,
2013-05-23 16:56:00,60.6,22.6,29.75,South,180,9.9,-999.0,23,-99.99,,,0.00,Acu-Link.com,2013-05-23 22:56:00,
2013-05-23 17:11:00,61.5,21.2,29.75,West,270,4.2,-999.0,21,-99.99,,,0.00,Acu-Link.com,2013-05-23 23:11:00,
2013-05-23 17:27:00,59.7,22.9,29.76,South,180,4.7,-999.0,24,-99.99,,,0.00,Acu-Link.com,2013-05-23 23:27:00,
2013-05-23 17:42:00,61.0,20.8,29.75,West,270,2.7,-999.0,21,-99.99,,,0.00,Acu-Link.com,2013-05-23 23:42:00,
2013-05-23 17:57:00,61.2,18.6,29.75,West,270,6.3,-999.0,19,-99.99,,,0.00,Acu-Link.com,2013-05-23 23:57:00,
2013-05-23 18:12:00,59.7,17.4,29.75,NW,315,3.7,-999.0,19,-99.99,,,0.00,Acu-Link.com,2013-05-24 00:12:00,
2013-05-23 18:27:00,57.7,16.9,29.75,ENE,67,2.7,-999.0,20,-99.99,,,0.00,Acu-Link.com,2013-05-24 00:27:00,
2013-05-23 18:43:00,56.8,17.3,29.75,East,90,7.3,-999.0,21,-99.99,,,0.00,Acu-Link.com,2013-05-24 00:43:00,
2013-05-23 18:58:00,56.1,16.7,29.75,South,180,6.8,-999.0,21,-99.99,,,0.00,Acu-Link.com,2013-05-24 00:58:00,
2013-05-23 19:13:00,55.6,14.0,29.76,ESE,112,2.2,-999.0,19,-99.99,,,0.00,Acu-Link.com,2013-05-24 01:13:00,
2013-05-23 19:28:00,54.5,16.5,29.76,South,180,2.7,-999.0,22,-99.99,,,0.00,Acu-Link.com,2013-05-24 01:28:00,
2013-05-23 19:43:00,53.6,15.7,29.76,SE,135,2.2,-999.0,22,-99.99,,,0.00,Acu-Link.com,2013-05-24 01:43:00,
2013-05-23 19:58:00,52.2,23.2,29.76,South,180,1.1,-999.0,32,-99.99,,,0.00,Acu-Link.com,2013-05-24 01:58:00,
2013-05-23 20:13:00,47.5,36.3,29.76,SE,135,0.0,-999.0,65,-99.99,,,0.00,Acu-Link.com,2013-05-24 02:13:00,
2013-05-23 20:28:00,45.1,36.3,29.77,SE,135,0.0,-999.0,71,-99.99,,,0.00,Acu-Link.com,2013-05-24 02:28:00,
2013-05-23 20:43:00,42.8,36.4,29.77,SE,135,2.2,-999.0,78,-99.99,,,0.00,Acu-Link.com,2013-05-24 02:43:00,
2013-05-23 20:59:00,41.9,37.7,29.77,SE,135,2.2,-999.0,85,-99.99,,,0.00,Acu-Link.com,2013-05-24 02:59:00,
2013-05-23 21:14:00,40.8,36.9,29.78,SE,135,0.0,-999.0,86,-99.99,,,0.00,Acu-Link.com,2013-05-24 03:14:00,
2013-05-23 21:29:00,38.8,35.3,29.79,SE,135,2.7,-999.0,87,-99.99,,,0.00,Acu-Link.com,2013-05-24 03:29:00,
2013-05-23 21:44:00,38.5,36.4,29.78,SE,135,2.2,-999.0,92,-99.99,,,0.00,Acu-Link.com,2013-05-24 03:44:00,
2013-05-23 21:59:00,38.5,37.2,29.79,SE,135,2.7,-999.0,95,-99.99,,,0.00,Acu-Link.com,2013-05-24 03:59:00,
2013-05-23 22:14:00,37.9,36.6,29.79,SE,135,2.2,-999.0,95,-99.99,,,0.00,Acu-Link.com,2013-05-24 04:14:00,
2013-05-23 22:29:00,37.6,36.6,29.79,SE,135,2.2,-999.0,96,-99.99,,,0.00,Acu-Link.com,2013-05-24 04:29:00,
2013-05-23 22:44:00,36.9,36.1,29.80,SE,135,2.2,-999.0,97,-99.99,,,0.00,Acu-Link.com,2013-05-24 04:44:00,
2013-05-23 22:59:00,37.2,36.7,29.80,SE,135,2.7,-999.0,98,-99.99,,,0.00,Acu-Link.com,2013-05-24 04:59:00,
2013-05-23 23:15:00,36.9,36.6,29.80,SE,135,3.7,-999.0,99,-99.99,,,0.00,Acu-Link.com,2013-05-24 05:15:00,
2013-05-23 23:30:00,37.2,35.9,29.79,SE,135,0.0,-999.0,95,-99.99,,,0.00,Acu-Link.com,2013-05-24 05:30:00,
2013-05-23 23:45:00,37.9,32.0,29.79,SE,135,2.2,-999.0,79,-99.99,,,0.00,Acu-Link.com,2013-05-24 05:45:00,